H1 CPF 2 NER 2025 9 15 9 258 01 glonass141 H2 1908801 9141 44850 2025 9 15 0 0 0 2025 9 18 23 45 0 900 1 1 0 0 0 1 H9 10 0 60933 0.00000 0 6168832.371 21412502.850 -12412413.002 10 0 60933 900.00000 0 6412042.532 22761566.991 -9569875.985 10 0 60933 1800.00000 0 6710486.518 23730341.548 -6541480.598 10 0 60933 2700.00000 0 7008510.878 24300710.937 -3386083.136 10 0 60933 3600.00000 0 7248975.330 24468013.005 -164964.574 10 0 60933 4500.00000 0 7375889.961 24241121.179 3059360.618 10 0 60933 5400.00000 0 7337008.161 23641978.011 6224356.588 10 0 60933 6300.00000 0 7086265.584 22704601.103 9268675.558 10 0 60933 7200.00000 0 6585962.226 21473604.294 12133341.227 10 0 60933 8100.00000 0 5808595.751 20002297.029 14762883.542 10 0 60933 9000.00000 0 4738268.957 18350442.061 17106403.538 10 0 60933 9900.00000 0 3371612.224 16581765.487 19118548.375 10 0 60933 10800.00000 0 1718181.986 14761322.945 20760378.819 10 0 60933 11700.00000 0 -199682.021 12952831.344 22000113.448 10 0 60933 12600.00000 0 -2347535.689 11216076.516 22813736.280 10 0 60933 13500.00000 0 -4680018.609 9604503.747 23185457.048 10 0 60933 14400.00000 0 -7142503.430 8163090.392 23108015.848 10 0 60933 15300.00000 0 -9673139.741 6926588.084 22582826.654 10 0 60933 16200.00000 0 -12205209.507 5918206.828 21619956.771 10 0 60933 17100.00000 0 -14669698.174 5148795.183 20237942.138 10 0 60933 18000.00000 0 -16997976.354 4616550.380 18463441.113 10 0 60933 18900.00000 0 -19124482.079 4307270.482 16330732.238 10 0 60933 19800.00000 0 -20989293.033 4195138.225 13881064.265 10 0 60933 20700.00000 0 -22540482.117 4244004.112 11161869.621 10 0 60933 21600.00000 0 -23736158.061 4409115.266 8225855.238 10 0 60933 22500.00000 0 -24546105.407 4639217.648 5129987.263 10 0 60933 23400.00000 0 -24952954.364 4878943.100 1934388.729 10 0 60933 24300.00000 0 -24952830.518 5071380.199 -1298828.735 10 0 60933 25200.00000 0 -24555456.029 5160719.621 -4506776.244 10 0 60933 26100.00000 0 -23783697.101 5094861.037 -7627017.910 10 0 60933 27000.00000 0 -22672576.021 4827869.768 -10598795.162 10 0 60933 27900.00000 0 -21267788.914 4322177.531 -13364220.227 10 0 60933 28800.00000 0 -19623791.559 3550432.241 -15869414.297 10 0 60933 29700.00000 0 -17801534.075 2496916.744 -18065567.115 10 0 60933 30600.00000 0 -15865940.308 1158474.697 -19909896.403 10 0 60933 31500.00000 0 -13883238.563 -455097.150 -21366487.667 10 0 60933 32400.00000 0 -11918256.509 -2321208.188 -22406997.605 10 0 60933 33300.00000 0 -10031794.366 -4405179.197 -23011207.268 10 0 60933 34200.00000 0 -8278186.912 -6661464.752 -23167414.246 10 0 60933 35100.00000 0 -6703156.508 -9035342.134 -22872656.562 10 0 60933 36000.00000 0 -5342046.692 -11464996.315 -22132764.323 10 0 60933 36900.00000 0 -4218509.588 -13883913.932 -20962238.636 10 0 60933 37800.00000 0 -3343700.889 -16223486.180 -19383960.704 10 0 60933 38700.00000 0 -2716014.649 -18415711.920 -17428737.290 10 0 60933 39600.00000 0 -2321367.198 -20395888.064 -15134691.968 10 0 60933 40500.00000 0 -2134016.295 -22105175.026 -12546514.522 10 0 60933 41400.00000 0 -2117879.104 -23492930.353 -9714583.591 10 0 60933 42300.00000 0 -2228291.601 -24518713.465 -6693980.167 10 0 60933 43200.00000 0 -2414133.551 -25153878.418 -3543411.623 10 0 60933 44100.00000 0 -2620227.982 -25382688.981 -324067.608 10 0 60933 45000.00000 0 -2789912.749 -25202910.439 2901569.517 10 0 60933 45900.00000 0 -2867674.839 -24625854.566 6070936.332 10 0 60933 46800.00000 0 -2801735.736 -23675877.101 9122598.503 10 0 60933 47700.00000 0 -2546478.557 -22389349.873 11997435.989 10 0 60933 48600.00000 0 -2064614.644 -20813151.533 14639780.720 10 0 60933 49500.00000 0 -1328998.446 -19002740.583 16998485.313 10 0 60933 50400.00000 0 -324014.446 -17019891.522 19027902.952 10 0 60933 51300.00000 0 953522.161 -14930188.407 20688760.508 10 0 60933 52200.00000 0 2493989.167 -12800379.812 21948909.125 10 0 60933 53100.00000 0 4275121.792 -10695704.483 22783938.834 10 0 60933 54000.00000 0 6262712.051 -8677297.848 23177646.268 10 0 60933 54900.00000 0 8411815.305 -6799785.976 23122347.140 10 0 60933 55800.00000 0 10668415.412 -5109165.764 22619027.757 10 0 60933 56700.00000 0 12971481.071 -3641058.325 21677332.591 10 0 60933 57600.00000 0 15255329.783 -2419407.306 20315387.608 10 0 60933 58500.00000 0 17452202.893 -1455675.681 18559461.906 10 0 60933 59400.00000 0 19494946.125 -748574.165 16443472.981 10 0 60933 60300.00000 0 21319685.155 -284332.502 14008343.785 10 0 60933 61200.00000 0 22868385.287 -37502.433 11301222.611 10 0 60933 62100.00000 0 24091188.544 27741.097 8374579.598 10 0 60933 63000.00000 0 24948430.036 -44145.066 5285196.250 10 0 60933 63900.00000 0 25412248.374 -202187.688 2093066.931 10 0 60933 64800.00000 0 25467721.443 -391293.559 -1139766.657 10 0 60933 65700.00000 0 25113478.586 -554825.163 -4350425.228 10 0 60933 66600.00000 0 24361762.171 -637245.821 -7476421.768 10 0 60933 67500.00000 0 23237934.820 -586721.101 -10456886.709 10 0 60933 68400.00000 0 21779452.196 -357564.886 -13233763.495 10 0 60933 69300.00000 0 20034344.057 87575.235 -15752950.051 10 0 60933 70200.00000 0 18059267.311 775887.474 -17965362.804 10 0 60933 71100.00000 0 15917213.080 1722999.486 -19827901.582 10 0 60933 72000.00000 0 13674964.508 2932076.738 -21304295.791 10 0 60933 72900.00000 0 11400412.526 4393455.098 -22365814.967 10 0 60933 73800.00000 0 9159842.586 6084824.298 -22991829.655 10 0 60933 74700.00000 0 7015306.420 7971955.433 -23170211.758 10 0 60933 75600.00000 0 5022188.934 10009942.547 -22897566.837 10 0 60933 76500.00000 0 3227071.714 12144906.570 -22179294.258 10 0 60933 77400.00000 0 1665981.917 14316090.313 -21029474.541 10 0 60933 78300.00000 0 363098.662 16458256.790 -19470586.631 10 0 60933 79200.00000 0 -670030.399 18504290.408 -17533061.168 10 0 60933 80100.00000 0 -1434731.326 20387892.029 -15254678.995 10 0 60933 81000.00000 0 -1944896.822 22046255.124 -12679827.134 10 0 60933 81900.00000 0 -2226144.913 23422611.081 -9858627.223 10 0 60933 82800.00000 0 -2314480.885 24468537.312 -6845953.895 10 0 60933 83700.00000 0 -2254520.796 25145931.952 -3700362.675 10 0 60933 84600.00000 0 -2097353.244 25428573.031 -482948.702 10 0 60933 85500.00000 0 -1898130.986 25303197.562 2743841.140 10 0 60934 0.00000 0 -1713495.204 24770056.338 5917419.051 10 0 60934 900.00000 0 -1598941.721 23842921.766 8976268.179 10 0 60934 1800.00000 0 -1606240.962 22548550.146 11861127.844 10 0 60934 2700.00000 0 -1781020.200 20925620.714 14516135.174 10 0 60934 3600.00000 0 -2160610.110 19023196.965 16889897.373 10 0 60934 4500.00000 0 -2772246.006 16898774.509 18936476.374 10 0 60934 5400.00000 0 -3631699.214 14615996.796 20616267.573 10 0 60934 6300.00000 0 -4742396.087 12242133.308 21896756.759 10 0 60934 7200.00000 0 -6095061.902 9845424.304 22753141.662 10 0 60934 8100.00000 0 -7667905.243 7492401.349 23168807.094 10 0 60934 9000.00000 0 -9427336.250 5245293.558 23135645.182 10 0 60934 9900.00000 0 -11329190.199 3159625.885 22654214.871 10 0 60934 10800.00000 0 -13320407.104 1282107.835 21733737.539 10 0 60934 11700.00000 0 -15341099.220 -351100.881 20391928.364 10 0 60934 12600.00000 0 -17326922.113 -1715676.529 18654665.786 10 0 60934 13500.00000 0 -19211652.138 -2799916.453 16555504.301 10 0 60934 14400.00000 0 -20929864.152 -3604990.664 14135038.603 10 0 60934 15300.00000 0 -22419598.497 -4144649.471 11440129.955 10 0 60934 16200.00000 0 -23624906.133 -4444399.290 8523008.463 10 0 60934 17100.00000 0 -24498165.117 -4540181.048 5440267.507 10 0 60934 18000.00000 0 -25002070.632 -4476606.685 2251769.170 10 0 60934 18900.00000 0 -25111213.873 -4304828.129 -980518.446 10 0 60934 19800.00000 0 -24813182.038 -4080129.069 -4193729.293 10 0 60934 20700.00000 0 -24109131.666 -3859341.993 -7325328.779 10 0 60934 21600.00000 0 -23013809.693 -3698200.784 -10314339.738 10 0 60934 22500.00000 0 -21555020.127 -3648742.259 -13102540.034 10 0 60934 23400.00000 0 -19772557.790 -3756868.210 -15635607.247 10 0 60934 24300.00000 0 -17716653.410 -4060172.765 -17864187.048 10 0 60934 25200.00000 0 -15445995.149 -4586128.666 -19744863.469 10 0 60934 26100.00000 0 -13025409.702 -5350710.657 -21241011.382 10 0 60934 27000.00000 0 -10523300.529 -6357515.510 -22323514.104 10 0 60934 27900.00000 0 -8008950.839 -7597416.909 -22971331.993 10 0 60934 28800.00000 0 -5549804.557 -9048770.586 -23171910.945 10 0 60934 29700.00000 0 -3208839.082 -10678161.648 -22921423.165 10 0 60934 30600.00000 0 -1042139.471 -12441663.016 -22224835.887 10 0 60934 31500.00000 0 903225.106 -14286552.200 -21095807.231 10 0 60934 32400.00000 0 2590934.826 -16153414.306 -19556411.764 10 0 60934 33300.00000 0 3996691.464 -17978542.905 -17636701.638 10 0 60934 34200.00000 0 5108977.903 -19696537.838 -15374112.438 10 0 60934 35100.00000 0 5929275.066 -21242990.852 -12812725.805 10 0 60934 36000.00000 0 6471729.371 -22557146.303 -10002403.707 10 0 60934 36900.00000 0 6762286.922 -23584425.364 -6997811.748 10 0 60934 37800.00000 0 6837333.030 -24278707.978 -3857350.988 10 0 60934 38700.00000 0 6741896.367 -24604277.177 -642019.500 10 0 60934 39600.00000 0 6527495.168 -24537344.667 2585773.771 10 0 60934 40500.00000 0 6249717.709 -24067094.337 5763419.545 10 0 60934 41400.00000 0 5965640.107 -23196200.609 8829319.519 10 0 60934 42300.00000 0 5731190.975 -21940800.617 11724075.011 10 0 60934 43200.00000 0 5598574.288 -20329921.986 14391630.240 10 0 60934 44100.00000 0 5613859.003 -18404390.515 16780348.694 10 0 60934 45000.00000 0 5814836.641 -16215263.554 18844002.523 10 0 60934 45900.00000 0 6229236.628 -13821854.213 20542656.870 10 0 60934 46800.00000 0 6873374.100 -11289428.098 21843433.107 10 0 60934 47700.00000 0 7751286.862 -8686667.528 22721137.331 10 0 60934 48600.00000 0 8854397.921 -6083007.328 23158742.919 10 0 60934 49500.00000 0 10161718.419 -3545951.387 23147718.546 10 0 60934 50400.00000 0 11640583.481 -1138479.802 22688195.684 10 0 60934 51300.00000 0 13247891.694 1083347.328 21788972.327 10 0 60934 52200.00000 0 14931798.092 3072491.409 20467352.382 10 0 60934 53100.00000 0 16633791.707 4792655.952 18748822.989 10 0 60934 54000.00000 0 18291072.623 6219555.568 16666574.843 10 0 60934 54900.00000 0 19839130.629 7341681.031 14260873.388 10 0 60934 55800.00000 0 21214418.686 8160528.638 11578291.659 10 0 60934 56700.00000 0 22357009.807 8690284.325 8670818.278 10 0 60934 57600.00000 0 23213125.986 8956975.612 5594856.781 10 0 60934 58500.00000 0 23737432.441 8997126.892 2410134.951 10 0 60934 59400.00000 0 23894999.732 8855974.632 -821454.994 10 0 60934 60300.00000 0 23662849.810 8585317.973 -4037062.755 10 0 60934 61200.00000 0 23031019.263 8241095.976 -7174108.841 10 0 60934 62100.00000 0 22003093.296 7880794.764 -10171511.240 10 0 60934 63000.00000 0 20596186.365 7560795.332 -12970884.969 10 0 60934 63900.00000 0 18840368.915 7333775.644 -15517689.917 10 0 60934 64800.00000 0 16777563.297 7246278.394 -17762303.518 10 0 60934 65700.00000 0 14459954.578 7336548.862 -19660996.375 10 0 60934 66600.00000 0 11947982.655 7632735.696 -21176791.003 10 0 60934 67500.00000 0 9307999.794 8151531.891 -22280186.515 10 0 60934 68400.00000 0 6609691.830 8897314.349 -22949734.874 10 0 60934 69300.00000 0 3923371.106 9861819.034 -23172457.531 10 0 60934 70200.00000 0 1317254.391 11024365.883 -22944094.590 10 0 60934 71100.00000 0 -1145160.620 12352624.183 -22269182.036 10 0 60934 72000.00000 0 -3407511.053 13803886.199 -21160956.055 10 0 60934 72900.00000 0 -5422676.727 15326795.292 -19641086.813 10 0 60934 73800.00000 0 -7154493.258 16863455.594 -17739247.479 10 0 60934 74700.00000 0 -8579000.258 18351834.215 -15492527.387 10 0 60934 75600.00000 0 -9685174.265 19728354.681 -12944701.348 10 0 60934 76500.00000 0 -10475117.788 20930572.339 -10145369.802 10 0 60934 77400.00000 0 -10963698.734 21899819.073 -7148987.093 10 0 60934 78300.00000 0 -11177657.662 22583706.129 -4013797.268 10 0 60934 79200.00000 0 -11154222.518 22938379.964 -800698.535 10 0 60934 80100.00000 0 -10939291.145 22930436.546 2427941.105 10 0 60934 81000.00000 0 -10585259.761 22538414.085 5609493.762 10 0 60934 81900.00000 0 -10148590.179 21753801.997 8682283.490 10 0 60934 82800.00000 0 -9687219.179 20581524.241 11586776.586 10 0 60934 83700.00000 0 -9257919.608 19039877.216 14266727.585 10 0 60934 84600.00000 0 -8913724.420 17159925.077 16670259.383 10 0 60934 85500.00000 0 -8701521.840 14984377.781 18750857.325 10 0 60935 0.00000 0 -8659922.315 12565998.619 20468258.919 10 0 60935 900.00000 0 -8817486.415 9965605.630 21789223.926 10 0 60935 1800.00000 0 -9191387.652 7249752.359 22688168.806 10 0 60935 2700.00000 0 -9786566.062 4488178.723 23147657.293 10 0 60935 3600.00000 0 -10595408.258 1751139.474 23158735.970 10 0 60935 4500.00000 0 -11597967.883 -893281.848 22721109.728 10 0 60935 5400.00000 0 -12762718.178 -3381763.498 21843153.533 10 0 60935 6300.00000 0 -14047806.535 -5658134.770 20541759.832 10 0 60935 7200.00000 0 -15402760.030 -7675466.006 18842023.709 10 0 60935 8100.00000 0 -16770572.190 -9397773.549 16776770.740 10 0 60935 9000.00000 0 -18090085.096 -10801269.374 14385935.275 10 0 60935 9900.00000 0 -19298568.179 -11875103.608 11715799.793 10 0 60935 10800.00000 0 -20334386.339 -12621568.980 8818108.693 10 0 60935 11700.00000 0 -21139645.565 -13055758.532 5749072.587 10 0 60935 12600.00000 0 -21662704.537 -13204690.723 2568281.626 10 0 60935 13500.00000 0 -21860445.638 -13105938.600 -662451.373 10 0 60935 14400.00000 0 -21700208.414 -12805820.771 -3880295.505 10 0 60935 15300.00000 0 -21161302.370 -12357230.803 -7022630.067 10 0 60935 16200.00000 0 -20236033.476 -11817197.288 -10028271.895 10 0 60935 17100.00000 0 -18930199.320 -11244278.597 -12838676.774 10 0 60935 18000.00000 0 -17263030.329 -10695903.640 -15399090.356 10 0 60935 18900.00000 0 -15266578.133 -10225772.372 -17659625.024 10 0 60935 19800.00000 0 -12984575.650 -9881427.336 -19576240.743 10 0 60935 20700.00000 0 -10470816.082 -9702100.183 -21111609.980 10 0 60935 21600.00000 0 -7787118.356 -9716925.255 -22235849.335 10 0 60935 22500.00000 0 -5000964.073 -9943596.542 -22927103.414 10 0 60935 23400.00000 0 -2182904.824 -10387525.277 -23171969.572 10 0 60935 24300.00000 0 596151.772 -11041533.973 -22965755.505 10 0 60935 25200.00000 0 3267664.072 -11886099.806 -22312565.061 10 0 60935 26100.00000 0 5768073.088 -12890136.895 -21225211.078 10 0 60935 27000.00000 0 8041205.187 -14012284.109 -19724957.502 10 0 60935 27900.00000 0 10040361.436 -15202643.683 -17841096.331 10 0 60935 28800.00000 0 11730007.511 -16404896.869 -15610368.187 10 0 60935 29700.00000 0 13086995.149 -17558706.983 -13076238.346 10 0 60935 30600.00000 0 14101265.863 -18602308.186 -10288042.814 10 0 60935 31500.00000 0 14776009.532 -19475170.560 -7300021.625 10 0 60935 32400.00000 0 15127273.386 -20120629.004 -4170258.666 10 0 60935 33300.00000 0 15183040.009 -20488365.152 -959549.101 10 0 60935 34200.00000 0 14981815.150 -20536637.859 2269783.146 10 0 60935 35100.00000 0 14570786.606 -20234168.600 5455094.586 10 0 60935 36000.00000 0 14003633.129 -19561602.780 8534634.447 10 0 60935 36900.00000 0 13338076.727 -18512485.874 11448736.538 10 0 60935 37800.00000 0 12633282.012 -17093713.741 14140967.940 10 0 60935 38700.00000 0 11947212.285 -15325438.362 16559212.837 10 0 60935 39600.00000 0 11334053.355 -13240432.918 18656671.264 10 0 60935 40500.00000 0 10841812.930 -10882942.371 20392754.491 10 0 60935 41400.00000 0 10510195.710 -8307066.774 21733860.799 10 0 60935 42300.00000 0 10368842.690 -5574743.621 22654017.746 10 0 60935 43200.00000 0 10436007.914 -2753411.757 23135379.488 10 0 60935 44100.00000 0 10717727.834 86547.781 23168570.290 10 0 60935 45000.00000 0 11207518.061 2874489.542 22752867.973 10 0 60935 45900.00000 0 11886610.676 5542190.795 21896223.782 10 0 60935 46800.00000 0 12724722.962 8026438.312 20615117.835 10 0 60935 47700.00000 0 13681326.522 10271408.884 18934252.157 10 0 60935 48600.00000 0 14707364.903 12230745.904 16886086.071 10 0 60935 49500.00000 0 15747349.108 13869246.442 14510221.577 10 0 60935 50400.00000 0 16741744.234 15164088.955 11852649.202 10 0 60935 51300.00000 0 17629547.870 16105550.470 8964867.577 10 0 60935 52200.00000 0 18350952.297 16697183.114 5902892.655 10 0 60935 53100.00000 0 18849978.304 16955442.274 2726175.038 10 0 60935 54000.00000 0 19076969.014 16908781.714 -503553.961 10 0 60935 54900.00000 0 18990837.431 16596253.561 -3723485.071 10 0 60935 55800.00000 0 18560971.304 16065672.172 -6870958.730 10 0 60935 56700.00000 0 17768713.133 15371419.690 -9884693.003 10 0 60935 57600.00000 0 16608350.862 14571986.581 -12705986.810 10 0 60935 58500.00000 0 15087575.645 13727351.945 -15279873.864 10 0 60935 59400.00000 0 13227385.585 12896315.403 -17556203.693 10 0 60935 60300.00000 0 11061438.070 12133894.480 -19490627.721 10 0 60935 61200.00000 0 8634876.794 11488898.560 -21045470.336 10 0 60935 62100.00000 0 6002681.892 11001782.871 -22190467.476 10 0 60935 63000.00000 0 3227611.868 10702873.821 -22903358.095 10 0 60935 63900.00000 0 377823.187 10611041.017 -23170316.966 10 0 60935 64800.00000 0 -2475733.053 10732872.091 -22986220.636 10 0 60935 65700.00000 0 -5262028.799 11062384.931 -22354741.732 10 0 60935 66600.00000 0 -7912677.769 11581289.000 -21288270.258 10 0 60935 67500.00000 0 -10364542.212 12259784.075 -19807663.981 10 0 60935 68400.00000 0 -12562119.551 13057861.939 -17941833.293 10 0 60935 69300.00000 0 -14459610.210 13927055.327 -15727169.203 10 0 60935 70200.00000 0 -16022581.512 14812559.556 -13206826.130 10 0 60935 71100.00000 0 -17229159.659 15655636.602 -10429873.966 10 0 60935 72000.00000 0 -18070701.665 16396199.592 -7450336.457 10 0 60935 72900.00000 0 -18551921.115 16975468.188 -4326135.115 10 0 60935 73800.00000 0 -18690464.513 17338582.565 -1117959.645 10 0 60935 74700.00000 0 -18515958.042 17437065.573 2111912.688 10 0 60935 75600.00000 0 -18068566.675 17231029.343 5300825.524 10 0 60935 76500.00000 0 -17397127.836 16691033.511 8386956.119 10 0 60935 77400.00000 0 -16556939.343 15799517.074 11310508.754 10 0 60935 78300.00000 0 -15607295.528 14551743.897 14014866.064 10 0 60935 79200.00000 0 -14608875.461 12956222.263 16447676.521 10 0 60935 80100.00000 0 -13621093.008 11034580.811 18561857.793 10 0 60935 81000.00000 0 -12699519.526 8820905.671 20316497.561 10 0 60935 81900.00000 0 -11893486.640 6360565.775 21677635.510 10 0 60935 82800.00000 0 -11243968.726 3708574.247 22618912.411 10 0 60935 83700.00000 0 -10781832.964 927552.685 23122074.785 10 0 60935 84600.00000 0 -10526529.480 -1914618.763 23177326.126 10 0 60935 85500.00000 0 -10485275.982 -4747369.780 22783518.305 10 0 60936 0.00000 0 -10652770.866 -7500121.851 21948179.595 10 0 60936 900.00000 0 -11011447.217 -10104975.850 20687377.808 10 0 60936 1800.00000 0 -11532257.458 -12499291.664 19025421.634 10 0 60936 2700.00000 0 -12175956.973 -14628058.961 16994403.331 10 0 60936 3600.00000 0 -12894833.775 -16445957.764 14633591.264 10 0 60936 4500.00000 0 -13634812.700 -17919024.993 11988682.284 10 0 60936 5400.00000 0 -14337846.550 -19025857.364 9110927.132 10 0 60936 6300.00000 0 -14944494.081 -19758300.160 6056144.646 10 0 60936 7200.00000 0 -15396576.324 -20121592.622 2883643.123 10 0 60936 8100.00000 0 -15639798.743 -20133963.387 -344930.631 10 0 60936 9000.00000 0 -15626227.657 -19825692.574 -3566792.202 10 0 60936 9900.00000 0 -15316514.904 -19237679.719 -6719246.565 10 0 60936 10800.00000 0 -14681775.048 -18419578.016 -9740916.547 10 0 60936 11700.00000 0 -13705033.888 -17427573.823 -12572947.816 10 0 60936 12600.00000 0 -12382185.083 -16321905.836 -15160165.742 10 0 60936 13500.00000 0 -10722412.650 -15164229.493 -17452160.485 10 0 60936 14400.00000 0 -8748059.743 -14014938.845 -19404278.157 10 0 60936 15300.00000 0 -6493947.853 -12930559.961 -20978497.925 10 0 60936 16200.00000 0 -4006173.882 -11961326.676 -22144177.432 10 0 60936 17100.00000 0 -1340434.758 -11149041.619 -22878651.765 10 0 60936 18000.00000 0 1440050.738 -10525313.019 -23167674.274 10 0 60936 18900.00000 0 4266936.278 -10110241.623 -23005690.884 10 0 60936 19800.00000 0 7069358.619 -9911612.692 -22395942.927 10 0 60936 20700.00000 0 9776655.663 -9924626.480 -21350396.954 10 0 60936 21600.00000 0 12321078.793 -10132177.632 -19889503.443 10 0 60936 22500.00000 0 14640386.693 -10505670.644 -18041789.619 10 0 60936 23400.00000 0 16680213.037 -11006335.841 -15843294.889 10 0 60936 24300.00000 0 18396110.052 -11586989.179 -13336860.430 10 0 60936 25200.00000 0 19755183.807 -12194160.527 -10571287.247 10 0 60936 26100.00000 0 20737254.217 -12770499.600 -7600379.691 10 0 60936 27000.00000 0 21335492.949 -13257357.177 -4481893.504 10 0 60936 27900.00000 0 21556514.294 -13597432.027 -1276409.352 10 0 60936 28800.00000 0 21419917.085 -13737371.381 1953845.818 10 0 60936 29700.00000 0 20957298.734 -13630215.068 5146206.380 10 0 60936 30600.00000 0 20210784.410 -13237580.171 8238781.044 10 0 60936 31500.00000 0 19231134.516 -12531494.274 11171647.700 10 0 60936 32400.00000 0 18075510.942 -11495800.258 13888007.301 10 0 60936 33300.00000 0 16804996.387 -10127073.676 16335274.945 10 0 60936 34200.00000 0 15481971.002 -8435014.131 18466087.807 10 0 60936 35100.00000 0 14167455.986 -6442293.930 20239211.419 10 0 60936 36000.00000 0 12918534.755 -4183869.680 21620327.853 10 0 60936 36900.00000 0 11785958.753 -1705784.576 22582691.671 10 0 60936 37800.00000 0 10812036.985 936490.113 23107641.941 10 0 60936 38700.00000 0 10028896.516 3680107.000 23184961.211 10 0 60936 39600.00000 0 9457185.833 6457204.615 22813074.897 10 0 60936 40500.00000 0 9105274.650 9197483.389 21999087.310 10 0 60936 41400.00000 0 8968983.439 11830890.661 20758653.201 10 0 60936 42300.00000 0 9031854.125 14290304.935 19115686.547 10 0 60936 43200.00000 0 9265951.084 16514109.373 17101911.086 10 0 60936 44100.00000 0 9633159.563 18448548.570 14756259.929 10 0 60936 45000.00000 0 10086927.824 20049771.056 12124134.491 10 0 60936 45900.00000 0 10574380.528 21285472.527 9256535.716 10 0 60936 46800.00000 0 11038714.914 22136070.921 6209083.273 10 0 60936 47700.00000 0 11421778.999 22595363.645 3040940.973 10 0 60936 48600.00000 0 11666722.699 22670638.723 -186331.186 10 0 60936 49500.00000 0 11720609.225 22382234.569 -3409976.019 10 0 60936 50400.00000 0 11536875.129 21762566.315 -6567265.434 10 0 60936 51300.00000 0 11077533.455 20854659.432 -9596729.385 10 0 60936 52200.00000 0 10315024.971 19710252.411 -12439362.562 10 0 60936 53100.00000 0 9233637.231 18387548.814 -15039784.157 10 0 60936 54000.00000 0 7830429.557 16948714.071 -17347326.985 10 0 60936 54900.00000 0 6115622.999 15457223.341 -19317033.737 10 0 60936 55800.00000 0 4112437.205 13975173.075 -20910540.116 10 0 60936 56700.00000 0 1856379.682 12560670.377 -22096827.087 10 0 60936 57600.00000 0 -605983.763 11265410.701 -22852827.331 10 0 60936 58500.00000 0 -3218726.561 10132546.203 -23163874.040 10 0 60936 59400.00000 0 -5918656.301 9194934.442 -23023983.519 10 0 60936 60300.00000 0 -8637719.722 8473840.707 -22435966.473 10 0 60936 61200.00000 0 -11305617.400 7978147.802 -21411366.261 10 0 60936 62100.00000 0 -13852519.153 7704105.466 -19970225.880 10 0 60936 63000.00000 0 -16211767.004 7635628.644 -18140688.734 10 0 60936 63900.00000 0 -18322453.236 7745130.563 -15958441.554 10 0 60936 64800.00000 0 -20131766.436 7994853.987 -13466010.813 10 0 60936 65700.00000 0 -21597008.353 8338642.992 -10711926.883 10 0 60936 66600.00000 0 -22687198.274 8724079.161 -7749772.733 10 0 60936 67500.00000 0 -23384199.111 9094890.797 -4637136.184 10 0 60936 68400.00000 0 -23683319.538 9393532.484 -1434486.576 10 0 60936 69300.00000 0 -23593368.555 9563825.331 1796001.870 10 0 60936 70200.00000 0 -23136161.863 9553545.975 4991656.793 10 0 60936 71100.00000 0 -22345502.306 9316854.850 8090520.991 10 0 60936 72000.00000 0 -21265678.524 8816461.257 11032548.702 10 0 60936 72900.00000 0 -19949545.868 8025434.106 13760761.995 10 0 60936 73800.00000 0 -18456270.698 6928582.191 16222345.392 10 0 60936 74700.00000 0 -16848832.850 5523345.991 18369658.310 10 0 60936 75600.00000 0 -15191390.636 3820163.363 20161146.698 10 0 60936 76500.00000 0 -13546617.980 1842293.287 21562137.360 10 0 60936 77400.00000 0 -11973124.124 -374895.846 22545500.678 10 0 60936 78300.00000 0 -10523062.494 -2785144.945 23092169.950 10 0 60936 79200.00000 0 -9240027.368 -5332980.798 23191508.066 10 0 60936 80100.00000 0 -8157324.985 -7955782.549 22841514.881 10 0 60936 81000.00000 0 -7296690.314 -10586154.224 22048871.319 10 0 60936 81900.00000 0 -6667502.390 -13154506.740 20828819.002 10 0 60936 82800.00000 0 -6266530.723 -15591743.950 19204876.928 10 0 60936 83700.00000 0 -6078223.378 -17831942.677 17208399.597 10 0 60936 84600.00000 0 -6075525.002 -19814916.450 14877983.784 10 0 60936 85500.00000 0 -6221190.976 -21488556.844 12258734.030 99